MONITOR-3 (RS58S)

Last updated on Thu Oct 30 2025 00:03:10 GMT+0000 (Coordinated Universal Time)

1 57180U 23091Q 25302.52059407 .00014349 00000+0 62927-3 0 9999 2 57180 97.5431 359.7602 0013228 184.4351 175.6770 15.22008956129133
UTC large
Height (km)
Speed (km/s)
/
Latitude / Longitude
Inclination (degrees)
Orbital Period (minutes)
Azimuth
Elevation
Range (km)
Doppler Factor

Next 0 passes for location: London (51.5072 / 0.1276)

Sorry there are no passes over London.